Wind_Speed
2 2 2 2 3 3 4 5 6 6 6 6 6 7 7 9 9 9 8 8 9 9 10 10 10 10 11 11 12 12 11 12 12 13 13 13 13 14 14 14 15 15 15
3 3 3 3 4 4 5 5 6 7 7 7 8 9 9 10 10 10 9 9 9 9 10 10 10 11 12 12 11 11 12 13 14 14 14 14 15 15 15 15 16 16 17
4 4 5 5 5 5 5 6 6 7 8 8 9 10 10 10 11 11 11 11 11 10 10 10 11 11 12 13 13 13 13 14 14 15 15 16 17 17 17 17 17 18 18
5 5 6 6 6 6 7 7 8 8 9 9 10 11 12 12 12 11 12 12 12 12 12 11 12 12 12 13 14 14 14 14 15 15 16 17 18 19 19 18 18 19 19
6 6 7 8 8 8 9 9 9 10 10 11 11 12 13 13 13 13 13 13 13 13 13 13 13 13 14 14 15 15 15 15 16 16 17 18 18 19 20 20 20 20 20
7 7 8 9 9 10 10 11 11 11 12 12 13 13 13 14 15 15 15 15 15 15 15 15 16 16 16 17 17 17 16 17 18 19 19 20 20 20 21 21 21 21 21
9 9 10 10 11 11 11 12 12 13 13 14 14 15 15 16 16 16 16 17 17 16 16 17 17 17 17 18 18 19 19 19 19 20 21 22 21 22 22 22 22 22 22
10 11 11 12 12 12 13 14 14 15 15 16 16 16 17 17 17 17 17 18 18 18 18 18 18 18 19 19 20 20 21 21 21 21 21 21 22 22 23 23 23 22 22
11 12 12 13 13 14 14 15 16 16 17 17 18 18 18 18 18 18 18 18 18 19 19 19 19 20 20 21 22 22 23 23 23 23 23 23 23 23 24 24 23 23 23
11 12 13 13 14 15 16 17 18 18 18 19 19 20 19 19 19 18 19 19 20 20 20 20 20 21 21 22 22 23 23 24 24 24 25 25 24 24 24 24 24 23 23
13 13 14 15 15 16 17 17 18 19 19 20 21 20 20 20 20 19 19 19 20 20 20 21 21 21 22 22 23 23 24 25 25 25 25 25 25 25 25 25 24 24 24
14 15 16 16 16 17 18 19 19 20 20 21 22 22 22 22 21 21 20 19 20 21 22 22 22 22 23 24 24 25 25 26 26 26 26 26 26 25 25 25 25 26 26
16 16 17 17 18 18 19 20 20 21 21 22 22 22 22 22 21 21 21 21 21 22 22 23 23 23 24 25 26 26 26 26 27 27 26 26 26 25 25 25 25 25 25
17 18 18 19 19 20 20 20 21 22 22 22 22 22 22 21 21 22 23 23 22 23 24 24 24 25 25 25 26 27 27 27 26 26 26 26 26 26 25 26 26 27 26
19 18 19 20 20 20 20 21 22 22 22 22 22 22 22 22 21 22 23 23 23 23 24 24 25 26 26 26 26 27 27 27 27 27 26 27 27 27 27 27 28 28 28
19 19 19 20 20 21 22 22 22 23 23 23 23 23 23 23 23 23 24 24 24 24 25 25 26 27 27 27 27 28 28 28 28 28 28 28 28 29 28 28 28 29 28
19 19 20 20 21 21 22 23 24 24 24 24 25 24 23 24 24 25 26 26 26 27 26 26 27 27 28 28 28 28 29 29 29 29 30 29 29 29 29 29 29 30 30
20 20 20 21 22 23 24 25 25 25 25 26 26 26 25 25 26 27 27 28 28 27 27 26 27 28 28 28 28 28 28 29 30 30 30 29 29 29 30 30 30 31 30
21 21 22 22 23 24 25 26 26 26 27 28 28 27 27 28 28 29 29 29 28 28 29 28 28 28 28 29 29 28 29 30 30 30 30 30 30 30 30 30 30 30 30
22 23 23 24 25 26 27 27 27 26 27 27 27 27 28 28 29 29 29 29 30 30 30 30 30 30 30 30 29 29 29 29 29 30 30 30 30 30 30 30 29 29 29
24 25 25 25 26 27 27 28 28 27 27 27 27 28 28 29 29 30 30 30 31 31 31 32 32 31 31 31 31 31 30 30 30 30 29 29 30 30 30 30 29 29 29
26 26 26 26 27 28 28 29 29 29 28 27 27 28 29 29 30 30 31 31 32 32 32 32 32 32 32 32 32 31 31 31 31 30 30 29 29 30 29 29 29 30 29
28 27 28 28 28 29 29 29 29 29 28 28 29 29 30 31 32 32 32 32 32 32 32 32 32 32 32 32 32 31 31 31 31 30 30 29 29 29 29 28 28 28 29
28 28 28 29 29 29 29 29 29 29 28 29 30 31 32 32 32 32 32 32 33 32 32 32 32 32 32 32 32 32 31 31 30 30 30 29 29 29 29 29 29 29 28
29 29 30 30 30 30 30 29 29 29 30 31 31 32 32 32 32 33 32 32 32 32 31 31 31 31 31 31 31 31 31 31 30 30 30 30 29 29 29 28 27 27 27
29 30 30 30 30 31 30 30 30 30 31 31 32 31 32 32 33 32 31 31 31 31 31 31 31 30 30 31 31 31 31 30 30 30 29 29 28 28 28 28 27 26 25
Wind_Direction
230 246 267 277 292 297 288 287 288 289 290 294 296 295 295 292 289 288 282 277 276 277 276 275 270 269 271 267 265 265 264 266 269 266 265 264 264 264 265 268 269 270 271
252 268 273 279 291 293 290 288 287 288 289 291 293 293 292 291 293 293 285 282 281 281 280 277 273 268 269 273 271 270 267 267 268 265 265 268 266 266 265 268 270 270 270
260 272 280 286 290 292 291 289 287 285 286 286 289 290 290 289 290 289 285 284 284 281 280 278 276 274 270 271 272 274 269 268 267 266 266 268 269 267 266 268 270 270 269
266 271 277 283 287 289 291 294 291 287 286 284 282 283 285 287 289 289 286 282 282 281 279 276 273 273 274 273 270 271 267 267 270 271 270 271 271 270 268 269 270 270 268
270 274 277 280 281 285 288 292 292 292 291 289 287 286 286 286 285 285 287 285 284 282 278 274 271 270 272 275 273 269 267 269 271 272 272 272 272 270 269 268 269 270 268
274 280 282 284 283 285 288 289 289 290 291 291 290 288 286 284 284 284 287 288 287 285 280 275 271 272 273 273 272 272 269 269 270 270 271 272 271 271 271 270 268 270 268
279 283 285 286 288 289 290 291 291 291 291 290 289 286 285 284 284 282 284 286 286 283 280 277 275 276 276 275 272 272 272 273 272 272 272 273 273 272 271 270 268 268 269
282 281 283 285 287 289 290 290 292 293 292 290 289 288 288 286 284 281 283 284 283 279 277 277 275 277 279 277 274 273 273 274 275 273 272 272 271 270 270 271 270 268 268
289 287 288 287 287 289 291 292 292 292 291 290 290 290 291 287 286 285 285 285 286 283 281 281 276 276 278 276 273 272 273 272 273 274 273 273 272 271 270 270 272 269 269
291 291 292 291 291 292 293 292 292 291 291 291 290 290 288 288 287 286 284 284 284 285 283 281 279 278 279 277 275 274 274 273 272 274 274 275 274 273 272 271 271 269 269
293 295 295 294 294 294 294 294 294 292 291 292 291 289 286 285 287 286 285 286 286 286 287 285 283 282 281 280 277 276 277 275 273 275 277 277 277 276 273 271 271 269 268
298 299 298 295 293 293 294 293 293 293 293 294 293 289 286 286 287 286 285 285 286 287 287 287 285 283 281 280 279 277 277 277 275 275 275 275 277 275 273 272 270 268 267
296 296 295 294 293 293 294 294 294 293 293 294 294 291 286 284 285 285 284 284 285 284 284 285 283 283 282 281 279 278 277 277 277 275 273 273 273 274 273 273 272 270 268
296 297 295 297 295 294 296 298 297 294 293 293 292 291 288 287 287 285 285 284 284 284 285 284 283 283 282 283 282 280 279 277 277 276 273 271 272 273 272 272 272 271 268
297 299 297 297 298 297 296 298 299 297 294 291 289 291 289 289 288 287 288 287 286 285 286 285 282 283 282 282 282 281 280 278 277 276 275 273 272 272 271 270 271 270 268
294 297 297 296 297 298 296 296 298 298 294 290 289 289 289 290 288 287 288 288 289 290 289 286 283 283 283 282 281 281 280 278 277 275 275 274 273 272 271 271 271 268 267
292 294 295 296 297 299 298 299 298 296 294 292 288 287 288 288 288 288 288 288 288 290 289 288 287 284 283 282 281 280 280 279 277 276 274 273 272 273 272 270 270 267 266
290 291 293 296 298 298 298 298 298 295 293 291 290 290 288 287 287 287 287 288 288 289 289 288 288 287 285 284 283 283 282 280 277 275 274 273 273 272 273 272 269 268 268
291 290 291 294 296 297 297 297 296 295 294 293 292 292 291 289 288 288 287 288 288 289 289 288 288 289 287 286 284 283 282 280 277 276 273 272 273 273 273 272 271 269 267
290 291 290 292 293 294 295 297 298 295 294 294 294 293 293 291 290 290 288 288 289 288 288 288 287 287 287 285 285 284 282 279 278 276 275 274 274 274 274 273 273 271 268
289 290 290 291 292 293 295 297 298 297 295 294 293 293 293 292 291 291 290 290 290 288 288 289 287 285 285 284 284 283 281 279 278 277 276 276 275 275 274 274 273 271 269
289 291 290 292 294 295 295 296 296 295 294 293 293 293 293 292 293 293 291 291 291 290 289 288 286 285 284 283 283 282 280 278 277 277 276 275 276 275 274 272 271 270 268
291 292 292 293 294 294 295 294 294 294 292 292 293 293 294 295 294 294 292 291 290 291 290 289 287 286 285 283 282 282 281 279 277 275 275 274 275 275 273 271 270 270 267
291 293 292 292 292 292 293 294 294 293 292 291 292 293 294 295 295 293 292 291 290 291 291 290 289 287 286 284 283 282 281 280 277 274 274 274 273 272 272 270 269 267 266
292 293 293 292 291 289 290 292 291 291 291 292 293 293 294 295 295 293 292 292 291 291 290 290 289 287 286 285 284 283 282 280 277 275 273 272 271 271 270 270 268 265 264
293 295 294 293 291 290 290 290 290 291 292 294 295 294 294 294 292 294 294 292 291 290 290 289 289 288 288 287 285 284 282 281 279 276 272 271 270 269 269 269 266 264 262
Height
5892 5892 5891 5891 5891 5890 5889 5889 5889 5888 5888 5888 5887 5887 5886 5885 5884 5884 5884 5883 5883 5883 5883 5882 5882 5882 5881 5881 5881 5880 5880 5881 5881 5881 5881 5881 5882 5882 5882 5881 5881 5881 5881
5892 5891 5891 5891 5890 5889 5889 5888 5888 5887 5887 5886 5886 5885 5884 5883 5883 5882 5881 5881 5881 5880 5880 5880 5879 5879 5879 5878 5878 5878 5878 5878 5878 5878 5878 5878 5878 5878 5878 5878 5878 5878 5878
5891 5890 5890 5890 5889 5888 5887 5887 5886 5886 5885 5885 5884 5883 5882 5881 5880 5879 5879 5878 5878 5878 5877 5877 5876 5876 5876 5875 5875 5874 5874 5874 5874 5874 5874 5874 5874 5874 5874 5874 5874 5874 5874
5889 5889 5888 5888 5887 5887 5886 5885 5884 5884 5883 5882 5881 5881 5880 5879 5878 5877 5876 5876 5875 5874 5874 5873 5873 5873 5872 5872 5871 5871 5871 5871 5870 5870 5870 5870 5870 5870 5870 5870 5870 5870 5869
5888 5887 5887 5886 5885 5885 5884 5883 5882 5882 5881 5880 5879 5878 5877 5876 5875 5874 5874 5872 5871 5871 5870 5870 5870 5869 5869 5868 5867 5867 5867 5867 5866 5866 5866 5866 5865 5865 5865 5865 5865 5865 5865
5886 5886 5885 5884 5883 5883 5882 5881 5880 5879 5878 5877 5876 5875 5874 5873 5872 5871 5870 5869 5868 5867 5866 5866 5865 5865 5865 5864 5864 5863 5863 5862 5862 5862 5861 5861 5860 5860 5860 5860 5860 5859 5859
5885 5884 5883 5882 5881 5880 5879 5878 5877 5876 5875 5874 5873 5872 5871 5869 5868 5867 5866 5865 5864 5863 5862 5861 5861 5860 5860 5859 5859 5858 5858 5858 5857 5857 5856 5855 5855 5855 5855 5855 5854 5854 5854
5882 5881 5880 5879 5878 5877 5876 5875 5874 5873 5871 5870 5869 5868 5867 5866 5864 5863 5862 5861 5860 5859 5858 5856 5856 5855 5855 5854 5854 5853 5853 5852 5852 5851 5850 5850 5849 5849 5849 5849 5848 5848 5848
5880 5879 5878 5877 5875 5874 5873 5872 5870 5869 5867 5866 5864 5863 5862 5861 5859 5858 5857 5856 5854 5854 5852 5851 5851 5850 5849 5849 5848 5848 5847 5846 5846 5845 5844 5844 5843 5843 5843 5842 5842 5842 5841
5877 5876 5875 5873 5872 5871 5869 5868 5866 5865 5863 5861 5860 5858 5857 5856 5854 5853 5852 5851 5849 5848 5847 5846 5845 5844 5843 5842 5842 5841 5841 5840 5839 5839 5838 5837 5837 5836 5836 5836 5835 5835 5835
5874 5873 5872 5871 5869 5867 5865 5864 5862 5860 5859 5857 5855 5853 5852 5850 5849 5848 5847 5846 5844 5843 5842 5840 5839 5838 5837 5836 5836 5835 5834 5833 5833 5832 5832 5831 5830 5829 5829 5828 5828 5828 5828
5871 5870 5868 5867 5865 5863 5861 5860 5858 5856 5854 5852 5850 5848 5846 5845 5844 5842 5842 5840 5839 5838 5836 5834 5833 5832 5831 5830 5829 5828 5828 5827 5826 5825 5824 5824 5823 5822 5822 5821 5821 5821 5821
5868 5866 5864 5863 5861 5859 5857 5855 5853 5851 5849 5847 5845 5842 5841 5839 5838 5837 5836 5835 5833 5832 5830 5829 5827 5826 5824 5823 5822 5821 5820 5820 5819 5818 5817 5816 5816 5815 5815 5814 5814 5814 5813
5864 5862 5860 5859 5857 5855 5853 5851 5848 5846 5844 5842 5840 5837 5835 5833 5832 5831 5830 5829 5828 5826 5825 5823 5821 5819 5818 5816 5815 5813 5813 5812 5811 5810 5809 5809 5808 5808 5807 5807 5806 5806 5806
5859 5858 5856 5854 5852 5850 5848 5846 5843 5841 5839 5836 5834 5832 5830 5829 5827 5825 5824 5822 5822 5820 5819 5816 5814 5812 5811 5809 5807 5806 5805 5804 5803 5802 5802 5801 5801 5800 5800 5799 5799 5798 5798
5855 5853 5851 5849 5847 5845 5843 5841 5838 5836 5833 5831 5829 5827 5825 5823 5821 5819 5818 5816 5815 5813 5812 5810 5808 5806 5804 5802 5800 5799 5797 5796 5796 5795 5794 5793 5792 5792 5791 5791 5790 5790 5790
5850 5848 5846 5845 5843 5840 5838 5835 5833 5830 5828 5825 5823 5821 5819 5817 5815 5813 5811 5810 5808 5807 5805 5803 5801 5799 5797 5794 5793 5791 5790 5789 5788 5787 5785 5784 5784 5783 5783 5782 5782 5782 5782
5845 5843 5841 5839 5837 5835 5832 5830 5827 5824 5822 5819 5817 5815 5813 5811 5809 5807 5805 5803 5802 5799 5798 5796 5794 5791 5789 5787 5785 5783 5782 5780 5779 5778 5777 5776 5775 5775 5775 5774 5773 5773 5773
5839 5837 5835 5834 5832 5829 5827 5824 5821 5818 5815 5813 5810 5808 5806 5804 5802 5800 5798 5796 5794 5792 5790 5788 5786 5784 5781 5779 5777 5775 5773 5772 5770 5769 5769 5768 5767 5766 5766 5765 5765 5765 5765
5833 5832 5829 5827 5825 5823 5820 5818 5815 5812 5809 5806 5804 5801 5799 5797 5795 5793 5790 5788 5786 5784 5781 5779 5778 5775 5773 5771 5769 5767 5765 5763 5762 5761 5760 5759 5758 5758 5757 5757 5757 5757 5756
5827 5825 5823 5820 5818 5816 5814 5811 5808 5805 5802 5800 5797 5794 5791 5789 5787 5785 5782 5780 5777 5775 5772 5770 5768 5766 5764 5762 5760 5758 5756 5755 5753 5752 5751 5750 5750 5749 5748 5748 5748 5748 5748
5820 5818 5816 5813 5811 5809 5806 5803 5800 5798 5795 5792 5790 5787 5784 5782 5779 5777 5774 5771 5769 5766 5763 5761 5759 5757 5755 5753 5751 5749 5747 5745 5745 5744 5742 5741 5741 5740 5740 5740 5740 5740 5740
5813 5811 5808 5806 5804 5801 5798 5796 5793 5790 5787 5785 5782 5779 5776 5773 5771 5768 5765 5763 5759 5756 5754 5752 5750 5748 5746 5743 5742 5740 5738 5736 5735 5734 5733 5733 5732 5731 5731 5731 5731 5731 5731
5806 5803 5801 5798 5796 5793 5790 5788 5785 5782 5779 5776 5774 5771 5768 5764 5762 5759 5756 5754 5750 5748 5745 5742 5740 5738 5736 5734 5732 5730 5728 5727 5726 5725 5724 5724 5723 5722 5722 5722 5723 5723 5723
5798 5796 5793 5790 5787 5785 5782 5779 5776 5773 5770 5768 5765 5762 5759 5756 5753 5750 5747 5744 5741 5739 5736 5733 5731 5728 5726 5724 5722 5720 5719 5717 5716 5716 5715 5714 5714 5713 5713 5714 5714 5714 5714
5790 5788 5785 5782 5779 5776 5773 5771 5767 5765 5762 5759 5756 5752 5750 5747 5744 5741 5738 5735 5732 5729 5727 5724 5722 5719 5717 5715 5713 5711 5709 5708 5707 5707 5706 5705 5705 5704 5705 5705 5705 5705 5706